Vorticity
4 16 2 20 8 4 -1 9 -46 -11 15 13 11 3 0 9 10 9 9 9 12 16 15 15 11 8 14 12 14 12 9 11 12 10 19 9 15 8 7 0 8 5 -4 6
36 -8 1 -3 -15 -16 29 -7 27 -17 -0 0 -7 0 -5 4 8 6 12 9 12 15 16 11 14 14 10 18 8 10 11 10 12 10 11 12 16 18 7 8 13 -1 1 3
32 10 16 17 19 13 16 1 1 -11 12 -6 13 11 11 11 9 8 11 10 10 15 16 14 14 12 1 17 6 11 13 13 10 9 6 6 4 11 4 3 43 8 -0 -7
0 4 35 9 -5 10 12 8 18 8 5 7 2 5 8 7 12 11 7 11 7 13 9 15 16 13 15 -0 37 13 13 11 14 10 2 0 5 39 -4 2 6 9 5 17
24 12 -19 -1 8 2 2 6 12 19 21 12 2 9 7 8 11 16 16 14 22 14 6 10 6 21 12 15 61 19 13 17 7 18 -0 8 9 6 -3 23 -16 30 1 8
4 -2 -8 9 13 17 12 17 14 6 8 10 8 14 -5 2 3 1 8 8 11 21 17 13 12 18 12 17 31 19 30 16 3 11 7 9 2 54 -9 4 8 -4 12 17
20 22 0 4 6 10 13 11 11 10 8 12 12 12 13 9 3 1 6 8 8 5 -1 11 14 12 21 21 11 12 23 57 4 16 22 20 -27 -4 20 -11 2 15 6 2
7 8 5 7 7 2 6 9 10 12 10 17 12 12 12 11 11 12 11 9 8 8 5 4 4 8 6 6 17 22 16 27 -13 60 5 3 8 -11 63 -33 -17 68 -2 7
2 8 7 11 12 11 6 4 3 4 5 4 7 12 14 13 12 10 7 5 5 7 5 8 5 4 5 2 0 10 9 13 16 16 57 51 39 14 20 40 17 -4 36 5
5 8 6 7 10 10 12 12 13 11 5 2 2 4 3 2 4 6 6 7 7 8 9 7 4 1 2 7 2 4 4 16 10 11 3 20 24 20 33 36 32 37 24 16
8 6 5 5 7 7 8 8 9 12 11 14 14 13 12 14 13 14 15 15 15 11 11 18 11 8 5 5 6 5 4 4 6 9 12 10 7 8 13 12 19 34 23 25
4 6 6 5 5 5 7 8 10 9 8 9 9 8 9 12 11 11 11 10 7 8 5 10 17 15 14 9 9 8 5 8 10 7 3 6 8 9 14 9 4 3 11 16
7 8 7 7 7 8 8 8 9 10 10 9 13 11 10 7 4 2 5 8 5 4 5 6 8 9 11 11 9 9 11 10 11 18 14 12 9 5 5 6 6 9 10 10
13 11 13 12 12 13 13 13 11 7 5 9 14 11 10 7 10 11 12 11 9 10 6 4 5 5 13 8 8 6 7 11 7 5 7 10 12 13 9 8 8 4 8 9
15 14 10 11 10 11 15 18 15 13 15 20 10 6 8 9 7 7 8 9 9 9 9 7 4 4 3 2 6 5 5 5 4 1 3 7 7 9 10 8 9 10 9 7
6 10 12 13 14 16 1 2 8 15 14 10 8 3 7 10 9 9 9 6 2 8 3 4 7 7 4 5 8 -5 6 4 7 7 4 2 -1 -0 -1 1 4 9 7 6
7 5 8 10 6 9 14 8 8 6 1 3 4 3 6 10 7 5 6 7 8 8 6 5 6 6 7 5 5 2 9 13 8 2 2 8 8 5 4 2 3 5 1 2
-3 6 3 3 6 4 7 10 9 7 5 3 5 9 11 13 13 12 11 10 11 11 11 10 10 9 9 9 9 9 5 3 9 14 17 11 12 13 11 11 11 10 10 10
9 8 5 4 9 15 18 17 15 14 12 9 8 7 8 8 9 9 7 7 8 6 7 8 5 8 7 7 8 7 6 3 1 -1 9 12 13 10 9 8 9 10 13 15
5 10 19 19 12 9 10 11 10 9 10 10 10 10 9 10 9 8 6 5 7 9 12 15 15 17 18 17 18 19 21 21 19 18 13 12 17 21 23 21 16 13 9 8
15 11 11 10 6 6 8 10 10 7 9 11 11 7 9 10 10 9 3 6 15 20 20 18 17 16 16 17 17 17 17 18 18 17 16 14 14 13 14 15 16 17 18 15
11 6 4 6 8 7 8 6 8 9 9 11 8 10 12 17 5 10 23 20 15 19 27 30 32 32 32 31 31 31 31 29 28 27 26 24 21 19 17 16 15 15 16 16
6 7 5 6 5 4 7 6 8 12 11 11 9 10 16 3 17 19 17 31 36 34 30 27 25 24 23 23 22 22 21 21 22 22 22 22 23 24 26 26 26 25 25 25
4 3 3 4 6 7 6 9 9 13 11 8 8 11 7 9 19 21 35 30 24 20 20 19 19 18 17 17 17 17 18 18 18 19 19 19 19 18 17 16 18 21 23 23
2 3 5 5 6 6 5 7 13 15 10 9 8 8 8 13 14 26 30 22 20 19 20 17 16 16 15 13 12 13 14 17 17 16 17 18 17 17 16 16 16 14 15 15
2 2 3 4 4 5 4 6 10 14 12 11 7 9 10 14 13 26 27 20 19 19 20 18 16 16 15 13 12 12 14 17 17 15 17 18 18 18 17 16 16 15 15 15
3 3 4 4 3 7 4 7 10 18 15 11 8 6 8 13 13 23 26 20 19 18 19 18 16 14 14 13 12 11 12 15 17 16 13 15 17 18 17 18 18 17 16 16
Height
5557 5560 5563 5566 5570 5571 5572 5579 5579 5579 5581 5583 5586 5589 5592 5595 5597 5600 5602 5601 5602 5603 5605 5607 5608 5609 5611 5613 5615 5617 5620 5623 5626 5629 5632 5633 5637 5642 5644 5649 5653 5656 5659 5662
5557 5562 5564 5565 5568 5570 5573 5577 5579 5579 5582 5584 5587 5590 5592 5595 5597 5597 5598 5598 5599 5599 5600 5600 5600 5601 5603 5605 5608 5609 5612 5614 5616 5621 5624 5625 5630 5632 5636 5640 5643 5647 5650 5652
5558 5557 5563 5567 5568 5571 5573 5575 5578 5579 5582 5584 5586 5588 5590 5592 5593 5594 5594 5594 5594 5593 5593 5593 5593 5594 5595 5596 5598 5600 5602 5605 5609 5612 5615 5618 5623 5625 5628 5631 5634 5639 5642 5646
5561 5563 5565 5566 5571 5573 5574 5576 5579 5580 5581 5582 5584 5585 5586 5587 5589 5589 5589 5589 5590 5590 5589 5587 5587 5587 5587 5589 5590 5589 5593 5595 5599 5603 5606 5609 5613 5609 5619 5622 5625 5629 5632 5635
5564 5564 5567 5568 5571 5573 5575 5577 5577 5578 5580 5582 5584 5585 5585 5586 5586 5586 5586 5586 5586 5587 5585 5584 5584 5584 5584 5584 5584 5585 5584 5586 5589 5593 5596 5601 5603 5607 5610 5612 5615 5618 5621 5624
5563 5565 5567 5568 5569 5572 5573 5575 5576 5577 5578 5579 5581 5582 5583 5582 5582 5583 5582 5583 5583 5581 5579 5579 5580 5579 5578 5578 5579 5580 5581 5578 5582 5586 5589 5591 5595 5591 5600 5600 5605 5607 5610 5612
5562 5564 5566 5567 5569 5569 5572 5576 5574 5575 5575 5576 5577 5578 5578 5578 5578 5578 5578 5578 5578 5577 5576 5576 5575 5574 5574 5573 5573 5573 5572 5573 5575 5579 5580 5581 5584 5587 5590 5588 5594 5595 5598 5599
5563 5564 5567 5567 5569 5570 5571 5570 5571 5572 5573 5573 5573 5574 5574 5574 5574 5574 5573 5573 5573 5572 5572 5572 5571 5571 5570 5569 5568 5568 5568 5566 5568 5569 5570 5571 5573 5575 5575 5578 5580 5578 5585 5586
5564 5564 5564 5565 5566 5567 5568 5568 5568 5569 5570 5570 5570 5570 5571 5571 5570 5570 5569 5568 5568 5568 5567 5566 5566 5565 5565 5564 5564 5565 5564 5564 5562 5561 5561 5561 5562 5562 5563 5563 5564 5569 5570 5572
5562 5563 5563 5564 5564 5564 5565 5565 5565 5565 5566 5566 5566 5566 5566 5566 5565 5565 5564 5562 5561 5561 5561 5561 5559 5558 5558 5557 5557 5558 5558 5557 5556 5555 5553 5553 5553 5553 5553 5552 5552 5553 5554 5555
5560 5560 5561 5561 5561 5561 5562 5561 5561 5561 5561 5561 5561 5561 5560 5560 5559 5559 5558 5556 5555 5554 5554 5553 5552 5551 5550 5549 5548 5548 5549 5548 5548 5547 5544 5543 5544 5543 5542 5544 5542 5544 5544 5545
5557 5557 5557 5557 5557 5557 5557 5557 5557 5557 5557 5557 5557 5557 5555 5555 5553 5553 5552 5551 5550 5548 5546 5545 5545 5543 5542 5541 5540 5539 5538 5538 5538 5538 5537 5536 5536 5534 5533 5533 5531 5531 5532 5533
5552 5552 5553 5552 5553 5553 5553 5553 5552 5552 5552 5552 5552 5551 5550 5549 5548 5547 5546 5544 5543 5541 5540 5538 5537 5536 5535 5533 5531 5530 5530 5528 5527 5526 5525 5524 5523 5524 5524 5524 5523 5522 5521 5520
5546 5548 5548 5548 5548 5549 5549 5549 5548 5547 5547 5547 5546 5544 5543 5542 5541 5540 5538 5536 5535 5533 5531 5530 5529 5527 5526 5524 5522 5521 5519 5518 5517 5516 5516 5516 5514 5512 5511 5510 5511 5512 5512 5512
5544 5544 5544 5544 5544 5544 5544 5542 5541 5540 5541 5540 5540 5538 5536 5534 5533 5531 5530 5527 5525 5523 5521 5519 5517 5515 5514 5513 5511 5510 5508 5506 5505 5504 5502 5502 5501 5500 5500 5499 5499 5499 5499 5499
5541 5542 5541 5541 5540 5540 5539 5538 5537 5535 5535 5534 5532 5531 5529 5527 5525 5522 5520 5517 5515 5512 5509 5506 5504 5501 5498 5496 5495 5495 5493 5492 5490 5489 5488 5487 5487 5486 5486 5485 5485 5485 5485 5484
5538 5539 5538 5538 5538 5536 5534 5533 5532 5531 5530 5528 5526 5523 5521 5518 5515 5512 5508 5504 5500 5497 5493 5490 5487 5484 5482 5480 5476 5473 5472 5472 5472 5471 5469 5469 5468 5468 5467 5467 5467 5467 5467 5466
5535 5536 5536 5534 5532 5530 5529 5527 5526 5524 5522 5520 5517 5514 5510 5506 5502 5497 5493 5489 5484 5480 5476 5471 5467 5465 5462 5459 5455 5452 5450 5447 5447 5448 5448 5447 5447 5446 5445 5444 5444 5445 5445 5445
5531 5532 5531 5529 5527 5526 5524 5522 5520 5517 5515 5512 5508 5504 5500 5495 5490 5485 5479 5473 5468 5463 5456 5450 5446 5442 5439 5435 5431 5428 5426 5424 5421 5421 5421 5421 5422 5423 5423 5423 5422 5421 5421 5422
5528 5527 5526 5525 5523 5522 5519 5517 5514 5511 5507 5503 5499 5494 5488 5482 5476 5471 5463 5456 5449 5444 5433 5427 5423 5417 5414 5410 5406 5403 5400 5399 5397 5395 5395 5396 5396 5398 5400 5400 5399 5399 5399 5399
5524 5524 5523 5521 5519 5517 5514 5510 5507 5503 5499 5494 5489 5483 5477 5469 5461 5453 5446 5437 5427 5420 5410 5405 5398 5393 5389 5385 5382 5379 5376 5374 5372 5370 5368 5367 5367 5369 5370 5372 5374 5374 5374 5376
5522 5521 5519 5517 5515 5512 5508 5504 5500 5495 5489 5484 5478 5471 5464 5455 5447 5435 5423 5414 5404 5396 5387 5381 5375 5370 5366 5362 5359 5357 5354 5351 5349 5347 5346 5344 5344 5343 5342 5344 5345 5347 5350 5351
5518 5517 5515 5512 5509 5505 5501 5496 5491 5485 5479 5472 5465 5457 5448 5440 5429 5416 5404 5391 5382 5374 5367 5362 5357 5353 5349 5345 5342 5340 5337 5334 5332 5330 5328 5326 5325 5324 5322 5322 5321 5321 5323 5324
5514 5512 5509 5506 5502 5497 5492 5487 5481 5474 5467 5459 5451 5442 5432 5422 5412 5400 5386 5374 5366 5360 5353 5349 5345 5341 5337 5333 5330 5327 5324 5321 5319 5316 5314 5312 5310 5309 5307 5306 5306 5304 5304 5305
5509 5507 5504 5499 5495 5489 5483 5477 5471 5464 5457 5450 5441 5430 5420 5407 5394 5382 5371 5363 5356 5349 5343 5338 5333 5330 5327 5323 5320 5317 5314 5310 5307 5304 5301 5299 5297 5295 5293 5292 5292 5291 5290 5290
5504 5500 5496 5491 5486 5481 5475 5467 5460 5453 5444 5437 5429 5419 5408 5396 5384 5371 5361 5352 5345 5339 5333 5328 5324 5320 5316 5314 5310 5307 5304 5300 5296 5293 5291 5288 5286 5284 5281 5281 5280 5279 5278 5278
5497 5493 5488 5483 5477 5469 5462 5454 5446 5437 5429 5421 5413 5404 5395 5383 5372 5361 5351 5342 5335 5329 5323 5318 5314 5310 5306 5303 5300 5297 5294 5290 5286 5283 5281 5278 5275 5273 5271 5269 5268 5268 5267 5266